Weather History for Minneapolis Flying Cloud, MN

Change the Weather History Date:

Thursday, November 29, 2012

  Actual Average Record
Temperature  
Mean Temperature 32 °F -  
Max Temperature 39 °F 36 °F 69 °F (1996)
Min Temperature 25 °F 22 °F 8 °F (2007)
Degree Days  
Heating Degree Days 33    
Moisture  
Dew Point 24 °F    
Average Humidity 69    
Maximum Humidity 85    
Minimum Humidity 53    
Precipitation  
Precipitation 0.00 in - - ()
Sea Level Pressure  
Sea Level Pressure 30.09 in    
Wind  
Wind Speed 5 mph (NE)    
Max Wind Speed 10 mph    
Max Gust Speed -    
Visibility 9 miles    
Events      
Averages and records for this station are not official NWS values.
T = Trace of Precipitation, MM = Missing Value Source: NWS Daily Summary

Daily Weather History Graph

Daily Weather History Graph

Search for Another Location

Airport:

Trip Planner

Search our weather history database for the weather conditions in past years. The results will help you decide how hot, cold, wet, or windy it might be!

Date:

Astronomy

Nov. 29, 2012 Rise Set
Actual Time 7:29 AM CST 4:34 PM CST
Civil Twilight 6:56 AM CST 5:07 PM CST
Nautical Twilight 6:20 AM CST 5:44 PM CST
Astronomical Twilight 5:45 AM CST 6:19 PM CST
Moon 5:38 PM CST 8:17 AM CST
Length of Visible Light 10h 11m
Length of Day
9h 05m
Full, 99% of the Moon is Illuminated
Nov 29
Full
Dec 6
Last Quarter
Dec 13
New
Dec 19
First Quarter
Dec 28
Full

Hourly Weather History & Observations

Time (CST) Temp. Windchill Dew Point Humidity Pressure Visibility Wind Dir Wind Speed Gust Speed Precip Events Conditions
12:53 AM 33.1 °F 28.7 °F 21.9 °F 64% 30.08 in 10.0 mi South 4.6 mph - N/A   Clear
1:53 AM 32.0 °F 27.5 °F 21.9 °F 66% 30.08 in 10.0 mi South 4.6 mph - N/A   Clear
2:53 AM 28.9 °F - 21.9 °F 75% 30.08 in 10.0 mi Calm Calm - N/A   Clear
3:53 AM 28.0 °F - 21.9 °F 78% 30.07 in 10.0 mi Calm Calm - N/A   Clear
4:53 AM 26.1 °F 21.9 °F 21.0 °F 81% 30.08 in 10.0 mi NE 3.5 mph - N/A   Clear
5:53 AM 25.0 °F 19.3 °F 19.9 °F 81% 30.08 in 9.0 mi NE 4.6 mph - N/A   Clear
6:53 AM 25.0 °F - 21.0 °F 85% 30.09 in 9.0 mi Calm Calm - N/A   Clear
7:53 AM 25.0 °F 18.1 °F 21.0 °F 85% 30.10 in 8.0 mi NNE 5.8 mph - N/A   Clear
8:53 AM 28.9 °F 23.9 °F 23.0 °F 78% 30.10 in 7.0 mi NE 4.6 mph - N/A   Clear
9:53 AM 33.1 °F 30.0 °F 24.1 °F 70% 30.10 in 7.0 mi NE 3.5 mph - N/A   Clear
10:53 AM 36.0 °F 32.1 °F 25.0 °F 64% 30.10 in 9.0 mi ENE 4.6 mph - N/A   Clear
11:53 AM 37.9 °F 31.5 °F 24.1 °F 57% 30.08 in 10.0 mi ENE 9.2 mph - N/A   Clear
12:53 PM 39.9 °F 34.5 °F 24.1 °F 53% 30.08 in 10.0 mi ENE 8.1 mph - N/A   Clear
1:53 PM 39.9 °F 34.5 °F 25.0 °F 55% 30.06 in 10.0 mi ENE 8.1 mph - N/A   Clear
2:53 PM 39.9 °F 33.9 °F 24.1 °F 53% 30.06 in 10.0 mi ENE 9.2 mph - N/A   Clear
3:53 PM 39.0 °F 34.0 °F 24.1 °F 55% 30.07 in 9.0 mi NE 6.9 mph - N/A   Clear
4:53 PM 37.0 °F 29.8 °F 25.0 °F 62% 30.06 in 9.0 mi ENE 10.4 mph - N/A   Clear
5:53 PM 36.0 °F 30.3 °F 25.0 °F 64% 30.10 in 9.0 mi NE 6.9 mph - N/A   Clear
6:53 PM 36.0 °F 29.0 °F 25.0 °F 64% 30.10 in 9.0 mi NE 9.2 mph - N/A   Clear
7:53 PM 34.0 °F 26.6 °F 26.1 °F 73% 30.12 in 8.0 mi NE 9.2 mph - N/A   Clear
8:53 PM 33.1 °F 25.5 °F 25.0 °F 72% 30.10 in 8.0 mi NE 9.2 mph - N/A   Clear
9:53 PM 33.1 °F 24.9 °F 25.0 °F 72% 30.10 in 8.0 mi NE 10.4 mph - N/A   Clear
10:53 PM 33.1 °F 25.5 °F 25.0 °F 72% 30.11 in 8.0 mi NE 9.2 mph - N/A   Clear
11:53 PM 32.0 °F 23.6 °F 25.0 °F 75% 30.10 in 8.0 mi NE 10.4 mph - N/A   Clear